Location: ????????
(55.7667°N, 37.4833°E)
Time: 02:51:50
(UTC+00:00)

Lacrosse 4 Rocket - Pass Details

Date: 19 May 2025
Orbit: 513 x 576 km, 68.0° (Epoch: 14 June)

Event Time Altitude Azimuth Distance (km) Brightness Sun altitude
Rises 18:42:00 0° 247° (WSW) 2,648 5.0 -6.7°
Reaches altitude 10° 18:44:17 10° 256° (WSW) 1,771 4.3 -6.9°
Maximum altitude 18:47:57 35° 324° (NW) 874 3.2 -7.2°
Drops below altitude 10° 18:51:42 10° 32° (NNE) 1,812 4.3 -7.5°
Sets 18:54:04 0° 41° (NE) 2,720 5.0 -7.7°
